Location: Miles
(41.4492°N, 81.6087°W)
Time: 11:08:12
(UTC+00:00)

Transit 2A Rocket - Visible Passes

Search period start: 07 September 2024 00:00
Search period end: 17 September 2024 00:00
Orbit: 582 x 910 km, 66.7° (Epoch: 06 September)

Date Brightness Start Highest point End Pass type
(mag) Time Alt. Az. Time Alt. Az. Time Alt. Az.
07 Sep 6.7 07:03:33 36° NNE 07:03:33 36° NNE 07:07:01 10° NNE visible
07 Sep 7.1 08:43:20 17° NW 08:44:25 18° NW 08:48:30 10° N visible
08 Sep 7.4 06:20:31 22° NE 06:20:31 22° NE 06:22:39 10° NE visible
08 Sep 6.8 08:00:18 26° NW 08:00:18 26° NW 08:04:44 10° N visible
09 Sep 7.9 05:37:26 13° NE 05:37:26 13° NE 05:38:01 10° NE visible
09 Sep 6.8 07:17:13 30° N 07:17:13 30° N 07:20:45 10° NNE visible
09 Sep 7.6 08:57:55 10° NW 08:59:17 11° NNW 09:00:39 10° NNW visible
10 Sep 7.2 06:34:07 25° NNE 06:34:07 25° NNE 06:36:37 10° NNE visible
10 Sep 7.3 08:13:54 15° NW 08:14:17 15° NW 08:17:47 10° N visible
11 Sep 7.7 05:50:59 17° NNE 05:50:59 17° NNE 05:52:18 10° NNE visible
11 Sep 7.2 07:30:46 21° NNW 07:30:46 21° NNW 07:34:07 10° N visible
12 Sep 7.3 06:47:36 22° N 06:47:36 22° N 06:50:12 10° NNE visible
13 Sep 7.6 06:04:25 19° NNE 06:04:25 19° NNE 06:06:07 10° NNE visible
13 Sep 7.6 07:44:12 13° NNW 07:44:12 13° NNW 07:46:54 10° N visible
14 Sep 7.9 05:21:14 13° NNE 05:21:14 13° NNE 05:21:52 10° NNE visible
14 Sep 7.6 07:01:00 17° NNW 07:01:00 17° NNW 07:03:25 10° N visible
15 Sep 7.7 06:17:46 18° N 06:17:46 18° N 06:19:34 10° NNE visible
16 Sep 7.9 05:34:31 15° NNE 05:34:31 15° NNE 05:35:32 10° NNE visible
16 Sep 7.9 07:14:17 11° NNW 07:14:17 11° NNW 07:15:42 10° NNW visible
